Regional Weather Roundup
Issued by NWS Goodland, KS

Home | Current Version | Previous Version | Graphics & Text | Print | Product List | Glossary On
Versions: 1 2 3 4 5 6 7 8 9 10 11 12 13 14 15 16 17 18 19 20 21 22 23 24 25 26 27 28 29 30 31 32 33 34 35 36 37 38 39 40 41 42 43 44 45 46 47 48 49 50
000
ASUS43 KGLD 300359
RWRGLD

GOODLAND FORECAST AREA HOURLY WEATHER ROUNDUP
NATIONAL WEATHER SERVICE GOODLAND KS
1000 PM MDT WED JUL 29 2015

...OFFICIAL OBSERVATIONS...

CITY           SKY/WX    TMP DP  RH WIND       PRES   REMARKS
GOODLAND KS    CLEAR     60  51  72 SE6       30.29R
HILL CITY KS   CLEAR     70  58  65 CALM      30.23R
IMPERIAL NEB   CLEAR     65  48  54 S9        30.26R
MCCOOK NEB     CLEAR     67  56  67 E3        30.25R
AKRON CO       PTCLDY    64  47  53 SE12      30.31R
BURLINGTON CO  PTCLDY    64  52  64 SE7       30.31R
LIMON CO       PTCLDY    60  50  69 SE6       30.35R
$$

...UNOFFICIAL OBSERVATIONS...

CITY           SKY/WX    TMP DP  RH WIND       PRES   REMARKS
COLBY KS       CLEAR     66  57  72 SE5       30.29R
NORTON KS      CLEAR     63  54  72 E3        30.23
SHARON SPRINGS   N/A     65  59  80 SE8         N/A
KIT CARSON CO    N/A     69  54  58 MISG        N/A
YUMA CO          N/A     62  50  65 SE5         N/A
$$



USA.gov is the U.S. government's official web portal to all federal, state and local government web resources and services.